Nantucket, MA

6:23 AM EDT on August 19, 2017 (GMT -0400)
Nantucket Memorial

Weather History for KACK - December, 2013

Change the Weather History Date:

Friday, December 6, 2013

  Actual Average Record
Temperature  
Mean Temperature 47 °F -  
Max Temperature 55 °F 46 °F 60 °F (2001)
Min Temperature 39 °F 32 °F 19 °F (1974)
Degree Days  
Heating Degree Days 18    
Moisture  
Dew Point 49 °F    
Average Humidity 96    
Maximum Humidity 100    
Minimum Humidity 80    
Precipitation  
Precipitation 0.23 in - - ()
Sea Level Pressure  
Sea Level Pressure 29.97 in    
Wind  
Wind Speed 11 mph (WSW)    
Max Wind Speed 22 mph    
Max Gust Speed 29 mph    
Visibility 4 miles    
Events Fog , Rain    
Averages and records for this station are not official NWS values.
T = Trace of Precipitation, MM = Missing Value Source: NWS Daily Summary

Daily Weather History Graph

Daily Weather History Graph

Search for Another Location

Airport or City:

Trip Planner

Search our weather history database for the weather conditions in past years. The results will help you decide how hot, cold, wet, or windy it might be!

Date:

Astronomy

Dec. 06, 2013 Rise Set
Actual Time 6:51 AM EST 4:11 PM EST
Civil Twilight 6:20 AM EST 4:42 PM EST
Nautical Twilight 5:46 AM EST 5:16 PM EST
Astronomical Twilight 5:12 AM EST 5:49 PM EST
Moon 9:53 AM EST (12/6) 8:40 PM EST (12/6)
Length of Visible Light 10h 21m
Length of Day
9h 19m
Waxing Crescent, 19% of the Moon is Illuminated
Dec 6
Waxing Crescent
Dec 9
First Quarter
Dec 17
Full
Dec 25
Last Quarter
Jan 1
New

Hourly Weather History & Observations

Time (EST) Temp. Windchill Dew Point Humidity Pressure Visibility Wind Dir Wind Speed Gust Speed Precip Events Conditions
12:53 AM 51.1 °F - 50.0 °F 96% 29.98 in 3.0 mi South 8.1 mph - 0.00 in   Overcast
1:00 AM 51.8 °F - 50.0 °F 94% 29.98 in 2.5 mi South 8.1 mph - N/A   Overcast
1:12 AM 50.0 °F - 50.0 °F 100% 29.98 in 2.5 mi South 8.1 mph - N/A   Overcast
1:26 AM 51.8 °F - 51.8 °F 100% 29.98 in 3.0 mi South 10.4 mph - N/A   Overcast
1:33 AM 51.8 °F - 50.0 °F 94% 29.98 in 2.0 mi South 10.4 mph - N/A   Overcast
1:42 AM 51.8 °F - 51.8 °F 100% 29.98 in 1.5 mi SSW 11.5 mph - N/A   Overcast
1:51 AM 51.8 °F - 51.8 °F 100% 29.97 in 1.0 mi SSW 10.4 mph - N/A   Mist
1:53 AM 52.0 °F - 51.1 °F 97% 29.97 in 1.0 mi SSW 10.4 mph - N/A   Mist
2:02 AM 53.6 °F - 51.8 °F 94% 29.96 in 0.8 mi SSW 12.7 mph - N/A   Mist
2:53 AM 52.0 °F - 51.1 °F 97% 29.96 in 0.5 mi South 9.2 mph - N/A Fog Fog
3:04 AM 51.8 °F - 51.8 °F 100% 29.96 in 0.2 mi SSW 9.2 mph - N/A Fog Fog
3:50 AM 51.8 °F - 51.8 °F 100% 29.96 in 0.5 mi SSW 6.9 mph - N/A Fog Fog
3:53 AM 52.0 °F - 51.1 °F 97% 29.96 in 0.5 mi SSW 9.2 mph - N/A Fog Fog
4:06 AM 53.6 °F - 51.8 °F 94% 29.95 in 2.0 mi SSW 11.5 mph - N/A   Overcast
4:10 AM 53.6 °F - 51.8 °F 94% 29.94 in 3.0 mi SSW 9.2 mph - N/A   Overcast
4:13 AM 51.8 °F - 51.8 °F 100% 29.95 in 2.5 mi SSW 9.2 mph - N/A   Overcast
4:24 AM 53.6 °F - 51.8 °F 94% 29.95 in 1.2 mi SSW 11.5 mph - N/A   Overcast
4:39 AM 51.8 °F - 51.8 °F 100% 29.95 in 0.8 mi SSW 9.2 mph - N/A   Mist
4:53 AM 52.0 °F - 52.0 °F 100% 29.95 in 0.5 mi South 12.7 mph - N/A Fog Fog
5:03 AM 51.8 °F - 51.8 °F 100% 29.94 in 0.5 mi South 12.7 mph - N/A Fog Fog
5:10 AM 51.8 °F - 51.8 °F 100% 29.94 in 0.5 mi South 11.5 mph - N/A Fog Fog
5:33 AM 51.8 °F - 51.8 °F 100% 29.94 in 1.0 mi South 11.5 mph - N/A   Overcast
5:44 AM 51.8 °F - 51.8 °F 100% 29.94 in 1.5 mi SSW 12.7 mph - N/A   Overcast
5:53 AM 52.0 °F - 51.1 °F 97% 29.95 in 1.5 mi SSW 11.5 mph - N/A   Overcast
6:53 AM 52.0 °F - 51.1 °F 97% 29.95 in 1.0 mi SSW 10.4 mph - 0.00 in Rain Light Rain
7:14 AM 51.8 °F - 51.8 °F 100% 29.95 in 0.5 mi SSW 9.2 mph - 0.00 in Fog Fog
7:53 AM 53.1 °F - 52.0 °F 96% 29.95 in 0.5 mi SSW 12.7 mph - 0.00 in Fog Fog
8:00 AM 53.6 °F - 53.6 °F 100% 29.95 in 1.0 mi SSW 15.0 mph - N/A   Mist
8:04 AM 53.6 °F - 53.6 °F 100% 29.95 in 1.5 mi SSW 16.1 mph 21.9 mph N/A   Overcast
8:44 AM 53.6 °F - 53.6 °F 100% 29.94 in 1.0 mi SSW 9.2 mph - N/A   Overcast
8:53 AM 53.1 °F - 53.1 °F 100% 29.94 in 1.0 mi SSW 9.2 mph - N/A   Overcast
9:18 AM 51.8 °F - 51.8 °F 100% 29.95 in 1.5 mi SW 5.8 mph - N/A   Overcast
9:53 AM 53.1 °F - 52.0 °F 96% 29.95 in 1.8 mi SW 6.9 mph - N/A   Overcast
10:38 AM 53.6 °F - 51.8 °F 94% 29.95 in 3.0 mi SW 10.4 mph - N/A   Overcast
10:51 AM 53.6 °F - 53.6 °F 100% 29.95 in 2.5 mi WSW 12.7 mph - 0.01 in Rain Light Rain
10:53 AM 54.0 °F - 53.1 °F 97% 29.95 in 2.5 mi WSW 12.7 mph - 0.01 in Rain Light Rain
10:58 AM 55.4 °F - 53.6 °F 94% 29.95 in 1.8 mi WSW 12.7 mph - 0.00 in Rain Light Rain
11:34 AM 53.6 °F - 53.6 °F 100% 29.94 in 0.8 mi WSW 10.4 mph - 0.01 in Rain Light Rain
11:53 AM 55.0 °F - 54.0 °F 96% 29.92 in 0.8 mi West 10.4 mph - 0.02 in Rain Light Rain
12:00 PM 55.4 °F - 53.6 °F 94% 29.92 in 1.0 mi West 8.1 mph - 0.00 in Rain Light Rain
12:10 PM 55.4 °F - 53.6 °F 94% 29.92 in 0.8 mi West 9.2 mph - 0.00 in   Mist
12:45 PM 51.8 °F - 51.8 °F 100% 29.94 in 2.0 mi NNW 10.4 mph - 0.00 in Rain Light Rain
12:53 PM 51.1 °F - 50.0 °F 96% 29.94 in 2.0 mi NNW 8.1 mph - 0.00 in Rain Light Rain
12:55 PM 51.8 °F - 50.0 °F 94% 29.94 in 10.0 mi NNW 9.2 mph - 0.00 in Rain Light Rain
12:56 PM 51.8 °F - 50.0 °F 94% 29.94 in 10.0 mi NNW 9.2 mph - 0.00 in Rain Light Rain
12:58 PM 51.8 °F - 50.0 °F 94% 29.95 in 10.0 mi NNW 9.2 mph - 0.00 in   Mostly Cloudy
1:32 PM 48.2 °F - 48.2 °F 100% 29.95 in 3.0 mi NNW 11.5 mph - 0.00 in   Overcast
1:53 PM 48.9 °F - 46.9 °F 93% 29.95 in 1.5 mi North 11.5 mph - 0.00 in Rain Light Rain
2:47 PM 48.2 °F - 46.4 °F 93% 29.97 in 4.0 mi North 13.8 mph - 0.01 in   Overcast
2:53 PM 48.0 °F - 46.9 °F 96% 29.97 in 4.0 mi North 13.8 mph - 0.01 in   Overcast
3:00 PM 48.2 °F - 46.4 °F 93% 29.97 in 10.0 mi North 12.7 mph - N/A   Overcast
3:53 PM 46.9 °F - 46.0 °F 97% 29.99 in 10.0 mi North 12.7 mph - 0.00 in   Overcast
4:53 PM 46.9 °F - 45.0 °F 93% 30.01 in 10.0 mi North 10.4 mph - N/A   Overcast
5:00 PM 46.4 °F 41.1 °F 44.6 °F 93% 30.02 in 10.0 mi North 11.5 mph - N/A   Overcast
5:20 PM 46.4 °F 41.5 °F 44.6 °F 93% 30.02 in 10.0 mi North 10.4 mph - 0.00 in Rain Light Rain
5:53 PM 46.0 °F 40.2 °F 43.0 °F 89% 30.02 in 10.0 mi North 12.7 mph - 0.01 in Rain Light Rain
6:53 PM 45.0 °F 39.7 °F 43.0 °F 93% 30.02 in 10.0 mi North 10.4 mph - 0.01 in Rain Light Rain
7:53 PM 45.0 °F 41.2 °F 43.0 °F 93% 30.02 in 7.0 mi North 6.9 mph - 0.03 in Rain Light Rain
8:53 PM 43.0 °F 36.0 °F 37.0 °F 80% 30.05 in 9.0 mi North 13.8 mph - 0.02 in Rain Light Rain
9:12 PM 42.8 °F 35.4 °F 39.2 °F 87% 30.04 in 5.0 mi North 15.0 mph - 0.05 in Rain Rain
9:53 PM 43.0 °F 38.2 °F 39.0 °F 86% 30.05 in 9.0 mi North 8.1 mph - 0.06 in Rain Light Rain
10:11 PM 42.8 °F 34.3 °F 39.2 °F 87% 30.08 in 7.0 mi NNW 19.6 mph 23.0 mph 0.01 in Rain Light Rain
10:19 PM 42.8 °F 34.8 °F 39.2 °F 87% 30.10 in 5.0 mi NNW 17.3 mph 24.2 mph 0.02 in Rain Heavy Rain
10:44 PM 41.0 °F 31.6 °F 39.2 °F 93% 30.07 in 5.0 mi North 20.7 mph 27.6 mph 0.05 in Rain Rain
10:53 PM 41.0 °F 32.5 °F 39.0 °F 93% 30.06 in 7.0 mi North 17.3 mph - 0.05 in Rain Light Rain
11:20 PM 39.2 °F 29.3 °F 37.4 °F 93% 30.05 in 8.0 mi North 20.7 mph - 0.00 in Rain Light Rain
11:42 PM 39.2 °F 30.8 °F 37.4 °F 93% 30.03 in 7.0 mi North 15.0 mph - 0.00 in Rain Light Rain
11:49 PM 39.2 °F 30.2 °F 37.4 °F 93% 30.03 in 10.0 mi North 17.3 mph 25.3 mph 0.00 in Rain Light Rain
11:53 PM 39.0 °F 28.8 °F 37.0 °F 93% 30.03 in 10.0 mi North 21.9 mph 28.8 mph 0.01 in Rain Light Rain